Location: Oberwangen
(47.4286°N, 8.9679°E)
Time: 09:27:21
(UTC+00:00)

NOSS 3-1 (C) - Pass Details

Date: 20 June 2021
Orbit: 722 x 1486 km, 63.4° (Epoch: 30 July)

Event Time Altitude Azimuth Distance (km) Brightness Sun altitude
Exits shadow 23:46:49 25° 228° (SW) 1,600 4.2 -19.0°
Maximum altitude 23:50:08 78° 312° (NW) 892 3.3 -18.9°
Drops below altitude 10° 23:56:30 10° 39° (NE) 2,770 6.7 -18.8°
Sets 23:59:22 0° 41° (NE) 3,846 7.6 -18.7°
